Flag for United Kingdom

Past Weather in Kirkwall (Orkney Islands), Scotland, United Kingdom — Yesterday and Last 2 Weeks

Now
37 °F

Light rain. Passing clouds.


Feels Like: 31 °F
Forecast: N/A
Wind: 9 mph from West

Location: Kirkwall Airport

Current Time: Nov 17, 2019 at 8:42:36 pm

Latest Report: Nov 17, 2019 at 8:20 pm


Visibility: N/A

Pressure: 30.07 "Hg

Humidity: 87%

Dew Point: 34 °F

Location of Kirkwall (Orkney Islands)Location

Past Weather in Kirkwall (Orkney Islands) — Graph

°F

Kirkwall (Orkney Islands) Temperature Yesterday

Maximum temperature yesterday: 43 °F (at 11:50 am)
Minimum temperature yesterday: 36 °F (at 3:50 am)
Average temperature yesterday: 39 °F

High & Low Weather Summary for the Past Weeks

 TemperatureHumidityPressure
High48 °F (Nov 2, 7:50 pm)100% (Nov 16, 8:20 am)30.12 "Hg (Nov 16, 8:20 am)
Low30 °F (Nov 13, 5:50 am)57% (Nov 9, 1:20 pm)29.03 "Hg (Nov 2, 7:20 pm)
Average42 °F80%29.69 "Hg
* Reported Nov 2 7:20 pm — Nov 17 7:20 pm, Kirkwall (Orkney Islands). Weather by CustomWeather, © 2019

Note: Actual official high and low records may vary slightly from our data, if they occured in-between our weather recording intervals... More about our weather records

Advertising

Kirkwall (Orkney Islands) Weather History for the Previous 24 Hours

Scroll right to see more
 ConditionsComfort  
Time TempWeatherWind HumidityBarometerVisibility
7:20 pm
Sun, Nov 17
36 °FPassing clouds.5 mph87%30.04 "HgN/A
6:50 pm36 °FScattered showers. Passing clouds.3 mph87%30.04 "HgN/A
6:20 pm36 °FScattered showers. Passing clouds.5 mph87%30.04 "HgN/A
5:50 pm34 °FScattered showers. Passing clouds.6 mph93%30.04 "HgN/A
5:20 pm36 °FScattered showers. Passing clouds.6 mph87%30.04 "HgN/A
4:50 pm36 °FScattered showers. Passing clouds.3 mph87%30.01 "HgN/A
4:20 pm36 °FScattered showers. Passing clouds.3 mph87%30.01 "HgN/A
3:50 pm36 °FScattered showers. Passing clouds.3 mph93%30.01 "HgN/A
3:20 pm39 °FScattered showers. Scattered clouds.5 mph81%30.01 "HgN/A
2:50 pm41 °FScattered showers. Scattered clouds.3 mph81%30.01 "HgN/A
2:20 pm43 °FScattered showers. Scattered clouds.3 mph81%30.01 "HgN/A
1:50 pm43 °FSprinkles. Broken clouds.8 mph81%30.01 "HgN/A
1:20 pm43 °FSprinkles. Broken clouds.7 mph76%29.98 "HgN/A
12:50 pm43 °FScattered showers. Scattered clouds.No wind81%29.98 "HgN/A
12:20 pm43 °FScattered showers. Scattered clouds.5 mph81%29.98 "HgN/A
11:50 am43 °FSprinkles. Broken clouds.13 mph87%29.95 "HgN/A
11:20 am43 °FScattered showers. Broken clouds.5 mph87%29.95 "HgN/A
10:50 am43 °FBroken clouds.5 mph87%29.95 "HgN/A
10:20 am43 °FSprinkles. Broken clouds.7 mph87%29.95 "HgN/A
9:50 am43 °FBroken clouds.7 mph87%29.92 "HgN/A
9:20 am43 °FBroken clouds.6 mph87%29.92 "HgN/A
8:50 am43 °FBroken clouds.8 mph87%29.89 "HgN/A
8:20 am43 °FBroken clouds.1 mph87%29.89 "HgN/A
7:50 am41 °FPassing clouds.8 mph93%29.89 "HgN/A
7:20 am41 °FPassing clouds.9 mph93%29.86 "HgN/A
6:50 am41 °FPassing clouds.9 mph87%29.86 "HgN/A
6:20 am41 °FOvercast.8 mph87%29.86 "HgN/A
5:50 am41 °FQuite cool.8 mph87%29.83 "HgN/A
5:20 am41 °FQuite cool.3 mph87%29.83 "HgN/A
4:50 am41 °FPassing clouds.2 mph87%29.83 "HgN/A
4:20 am39 °FChilly.5 mph93%29.83 "HgN/A
3:50 am39 °FChilly.3 mph93%29.80 "HgN/A
3:20 am39 °FChilly.2 mph93%29.80 "HgN/A
2:50 am39 °FChilly.No wind93%29.80 "HgN/A
2:20 am39 °FChilly.No wind87%29.80 "HgN/A
1:50 am39 °FChilly.No wind93%29.80 "HgN/A
1:20 am39 °FPassing clouds.2 mph93%29.80 "HgN/A
12:50 am39 °FPassing clouds.1 mph87%29.80 "HgN/A
12:20 am39 °FChilly.1 mph100%29.80 "HgN/A
11:50 pm
Sat, Nov 16
39 °FChilly.3 mph93%29.77 "HgN/A
11:20 pm39 °FChilly.No wind93%29.77 "HgN/A
10:50 pm37 °FChilly.No wind93%29.77 "HgN/A
10:20 pm39 °FChilly.No wind93%29.77 "HgN/A
9:50 pm39 °FChilly.No wind93%29.77 "HgN/A
9:20 pm37 °FChilly.No wind93%29.77 "HgN/A
8:20 pm39 °FChilly.No wind87%29.77 "HgN/A
Weather by CustomWeather, © 2019

See weather overview